SCP
0 0 0 0 0 0 0 0 0 0 0 0 0 0 0 0 0 0 0 0 0 0 0 0 0 0 0 0 0 0 0 0 0 0 0 0 0 0 0 0 0 0 0
0 0 0 0 0 0 0 0 0 0 0 0 0 0 0 0 0 0 0 0 0 0 0 0 0 0 0 0 0 0 0 0 0 0 0 0 0 0 0 0 0 0 0
0 0 0 0 0 0 0 0 0 0 0 0 0 0 0 0 0 0 0 0 0 0 0 0 0 0 0 0 0 0 0 0 0 0 0 0 0 0 0 0 0 0 0
0 0 0 0 0 0 0 0 0 0 0 0 0 0 0 0 0 0 0 0 0 0 0 0 0 0 0 0 0 0 0 0 0 0 0 0 0 0 0 0 0 0 0
0 0 0 0 0 0 0 0 0 0 0 0 0 0 0 0 0 0 0 0 0 0 0 0 0 0 0 0 0 0 0 0 0 0 0 0 0 0 0 0 0 0 0
0 0 0 0 0 0 0 0 0 0 0 0 0 0 0 0 0 0 0 0 0 0 0 0 0 0 0 0 0 0 0 0 0 0 0 0 0 0 0 0 0 0 0
0 0 0 0 0 0 0 0 0 0 0 0 0 0 0 0 0 0 0 0 0 0 0 0 0 0 0 0 0 0 0 0 0 0 0 0 0 0 0 0 0 0 0
0 0 0 0 0 0 0 0 0 0 0 0 0 0 0 0 0 0 0 0 0 0 0 0 0 0 0 0 0 0 0 0 0 0 0 0 0 0 0 0 0 0 0
0 0 0 0 0 0 0 0 0 0 0 0 0 0 0 0 0 0 0 0 0 0 0 0 0 0 0 0 0 0 0 0 0 0 0 0 0 0 0 0 0 0 0
0 0 0 0 0 0 0 0 0 0 0 0 0 0 0 0 0 0 0 0 0 0 0 0 0 0 0 0 0 0 0 0 0 0 0 0 0 0 0 0 0 0 0
0 0 0 0 0 0 0 0 0 0 0 0 0 0 0 0 0 0 0 0 0 0 0 0 0 0 0 0 0 0 0 0 0 0 0 0 0 0 0 0 0 0 0
0 0 0 0 0 0 0 0 0 0 0 0 0 0 0 0 0 0 0 0 0 0 0 0 0 0 0 0 0 0 0 0 0 0 0 0 0 0 0 0 0 0 0
0 0 0 0 0 0 0 0 0 0 0 0 0 0 0 0 0 0 0 0 0 0 0 0 0 0 0 0 0 0 0 0 0 0 0 0 0 0 0 0 0 0 0
0 0 0 0 0 0 0 0 0 0 0 0 0 0 0 0 0 0 0 0 0 0 0 0 0 0 0 0 0 0 0 0 0 0 0 0 0 0 0 0 0 0 0
0 0 0 0 0 0 0 0 0 0 0 0 0 0 0 0 0 0 0 0 0 0 0 0 0 0 0 0 0 0 0 0 0 0 0 0 0 0 0 0 0 0 0
0 0 0 0 0 0 0 0 0 0 0 0 0 0 0 0 0 0 0 0 0 0 0 0 0 0 0 0 0 0 0 0 0 0 0 0 0 0 0 0 0 0 0
0 0 0 0 0 0 0 0 0 0 0 0 0 0 0 0 0 0 0 0 0 0 0 0 0 0 0 0 0 0 0 0 0 0 0 0 0 0 0 0 0 0 0
0 0 0 0 0 0 0 0 0 0 0 0 0 0 0 0 0 0 0 0 0 0 0 0 0 0 0 0 0 0 0 0 0 0 0 0 0 0 0 0 0 0 0
0 0 0 0 0 0 0 0 0 0 0 0 0 0 0 0 0 0 0 0 0 0 0 0 0 0 0 0 0 0 0 0 0 0 0 0 0 0 0 0 0 0 0
0 0 0 0 0 0 0 0 0 0 0 0 0 0 0 0 0 0 0 0 0 0 0 0 0 0 0 0 0 0 0 0 0 0 0 0 0 0 0 0 0 0 0
0 0 0 0 0 0 0 0 0 0 0 0 0 0 0 0 0 0 0 0 0 0 0 0 0 0 0 0 0 0 0 0 0 0 0 0 0 0 0 0 0 0 0
0 0 0 0 0 0 0 0 0 0 0 0 0 0 0 0 0 0 0 0 0 0 0 0 0 0 0 0 0 0 0 0 0 0 0 0 0 0 0 0 0 0 0
0 0 0 0 0 0 0 0 0 0 0 0 0 0 0 0 0 0 0 0 0 0 0 0 0 0 0 0 0 0 0 0 0 0 0 0 0 0 0 0 0 0 0
0 0 0 0 0 0 0 0 0 0 0 0 0 0 0 0 0 0 0 0 0 0 0 0 0 0 0 0 0 0 0 0 0 0 0 0 0 0 0 0 0 0 0
0 0 0 0 0 0 0 0 0 0 0 0 0 0 0 0 0 0 0 0 0 0 0 0 0 0 0 0 0 0 0 0 0 0 0 0 0 0 0 0 0 0 0
0 0 0 0 0 0 0 0 0 0 0 0 0 0 0 0 0 0 0 0 0 0 0 0 0 0 0 0 0 0 0 0 0 0 0 0 0 0 0 0 0 0 0
Wind_Speed
3 3 3 3 3 3 3 3 2 4 4 4 4 4 5 5 5 4 5 10 10 11 11 11 10 10 10 9 8 8 6 6 6 6 5 5 5 5 4 5 5 5 5
3 3 3 3 3 3 3 2 3 3 3 3 4 4 5 4 5 5 5 6 10 11 11 11 11 10 10 9 8 8 8 7 6 5 5 5 5 5 5 5 5 5 5
3 3 2 2 2 2 2 2 3 2 2 2 3 4 4 5 5 5 5 4 5 9 10 11 11 11 11 10 9 8 8 8 7 6 6 6 5 5 5 5 5 5 4
3 2 2 2 2 2 2 2 2 2 2 2 2 3 3 3 5 5 4 4 4 4 7 10 10 11 11 10 10 9 9 8 8 8 7 6 6 5 5 4 4 4 4
3 2 2 2 2 2 2 2 2 2 2 2 2 2 3 3 3 3 4 5 4 4 4 7 8 10 11 11 10 10 9 9 8 8 7 7 6 5 5 4 4 4 4
3 3 2 2 2 2 2 2 3 2 2 1 1 2 2 2 3 3 4 4 4 5 5 5 4 6 9 10 11 12 10 9 8 8 7 7 6 6 6 5 5 5 5
3 3 2 2 2 2 2 3 2 2 1 1 1 1 2 2 3 2 2 3 4 4 4 4 4 4 4 7 10 11 11 11 9 8 8 8 7 6 6 6 6 5 5
3 2 2 1 2 2 2 2 2 1 1 1 1 1 1 2 2 2 2 2 3 3 3 4 4 4 4 3 7 10 10 11 10 9 8 8 8 7 6 6 5 5 5
3 3 3 2 2 1 1 2 2 1 0 0 1 2 1 0 1 2 2 2 3 2 2 3 4 4 4 4 4 7 10 10 10 10 9 9 9 7 6 6 6 5 4
3 3 3 2 2 2 2 1 2 1 1 1 0 1 2 1 1 1 1 1 2 2 2 2 3 3 4 4 5 8 9 9 9 9 9 9 9 8 6 6 6 6 4
2 3 2 2 2 2 2 2 2 2 1 1 1 0 1 0 2 2 1 0 0 1 2 2 2 2 3 3 3 6 8 8 9 9 9 9 9 8 7 7 6 6 5
1 2 2 2 2 2 2 2 2 2 1 1 1 1 0 1 1 1 2 1 1 1 1 1 1 1 2 2 4 6 6 7 8 8 8 8 8 8 8 8 7 6 6
1 1 1 1 1 2 2 2 1 2 1 1 1 1 1 1 1 2 2 2 2 1 1 0 1 1 1 1 2 4 4 6 7 8 7 8 7 8 8 8 8 6 7
1 1 0 1 1 1 1 1 1 2 2 2 2 1 1 1 1 1 2 2 3 2 1 0 0 1 2 1 3 3 2 5 7 7 6 7 7 7 8 8 8 7 7
1 1 1 1 1 0 1 1 1 2 2 2 2 2 1 1 1 2 2 3 3 3 2 0 0 1 2 1 2 2 2 4 6 6 5 6 7 6 7 7 7 8 7
2 2 2 1 1 1 0 1 1 1 1 1 2 2 2 1 1 1 2 2 3 3 3 1 1 1 1 1 2 3 2 1 3 5 5 5 6 6 6 6 6 7 7
2 2 2 2 1 1 1 1 1 1 2 1 2 2 2 2 1 1 2 2 2 2 3 2 1 1 1 2 1 2 2 2 1 4 5 5 5 5 5 6 5 6 6
3 3 3 2 2 1 1 1 2 2 2 2 2 3 2 1 2 2 2 2 2 2 3 3 2 1 2 2 2 2 1 1 1 2 3 4 4 5 5 5 5 5 5
3 3 3 3 3 2 2 2 2 2 2 3 3 3 3 3 3 2 2 2 2 2 2 3 2 1 2 2 2 2 1 1 2 0 0 1 2 3 4 4 5 5 4
4 3 3 3 3 3 3 3 3 3 3 3 3 3 3 3 3 3 3 3 2 2 2 2 2 2 1 1 2 2 2 1 2 2 2 2 1 1 1 2 4 4 3
3 3 3 3 3 3 2 2 3 3 3 3 3 3 3 3 4 4 3 3 3 3 2 2 2 2 1 1 2 2 2 2 2 2 2 2 2 1 1 0 2 3 2
3 3 3 3 3 2 1 2 4 3 3 3 3 3 2 3 2 3 3 5 5 4 4 3 3 3 3 2 2 2 2 2 2 1 3 2 2 2 1 1 2 2 2
4 4 4 3 3 2 2 2 4 4 4 4 4 3 2 2 4 3 3 5 4 4 6 5 4 4 3 2 3 3 3 3 3 2 3 3 2 3 2 0 1 1 2
4 4 3 3 3 3 3 3 4 6 4 4 4 4 3 3 2 4 4 4 4 3 4 5 4 4 4 3 4 4 4 4 3 1 2 4 2 3 3 2 2 2 2
4 4 3 3 4 3 3 4 5 4 4 4 4 4 4 3 2 5 5 4 4 3 2 3 4 4 3 3 4 3 2 3 3 2 1 4 3 3 3 2 2 3 4
4 4 4 4 4 3 4 4 5 3 4 3 3 3 2 3 2 5 5 4 4 3 3 3 4 4 4 3 4 4 3 3 3 2 1 3 3 3 3 2 2 2 3
Wind_Direction
59 54 54 49 45 43 47 44 40 50 47 52 54 54 58 58 61 65 75 66 54 53 53 52 53 54 52 54 54 53 50 49 49 47 45 44 44 45 46 46 34 26 26
59 57 56 49 47 39 32 35 41 45 46 49 54 54 53 58 61 68 69 77 67 56 52 50 49 49 47 47 51 49 45 43 41 39 41 41 40 36 39 37 33 30 23
58 62 51 53 45 40 33 37 47 39 49 61 73 66 61 52 58 62 63 56 69 69 56 49 46 44 42 42 50 49 46 45 42 39 37 38 37 38 37 32 32 30 19
61 58 50 42 43 45 36 40 33 43 49 46 60 64 68 63 58 52 58 62 53 55 68 55 47 43 42 40 44 46 45 44 41 38 37 39 40 38 35 31 27 27 21
56 63 49 37 43 44 41 38 41 33 46 41 56 67 65 63 57 52 57 57 60 59 61 72 58 47 41 40 38 41 44 43 41 40 39 38 36 30 25 24 21 18 20
51 57 62 51 48 50 46 39 51 48 41 30 50 70 75 80 69 54 50 57 51 53 51 51 58 59 49 40 38 38 37 35 34 34 34 32 28 26 26 26 22 23 23
49 51 45 53 46 55 45 40 40 72 69 34 77 114 113 96 74 75 52 53 58 48 51 49 44 37 54 53 43 36 34 30 28 28 29 26 21 25 27 25 22 19 23
46 42 52 63 65 72 66 53 37 11 70 349 299 253 178 151 102 81 69 53 48 46 41 42 46 45 33 39 49 39 31 26 26 26 28 24 21 20 20 19 17 15 14
55 45 41 38 43 52 53 43 29 7 325 1 348 326 296 323 107 113 79 60 44 37 44 37 42 46 41 38 42 43 28 22 22 24 24 20 14 11 16 19 17 11 10
63 52 45 39 41 38 48 29 17 350 311 312 32 349 336 353 278 181 147 68 44 40 33 30 33 43 38 41 42 36 24 17 18 19 20 20 17 15 14 16 16 13 17
64 57 43 44 43 37 35 28 9 352 330 324 337 336 352 277 282 272 246 254 41 47 29 22 22 31 31 31 32 34 21 16 12 12 13 14 14 15 19 17 17 19 35
84 66 46 50 46 39 39 29 22 8 359 2 328 330 311 283 303 285 276 271 291 11 13 26 5 16 20 24 39 29 19 13 10 9 9 10 10 13 18 19 17 29 38
118 83 53 41 41 35 36 30 26 2 12 7 349 339 327 322 308 295 287 285 285 268 261 212 3 349 351 5 41 11 33 18 9 4 7 10 9 11 17 19 20 32 35
142 149 161 81 42 21 16 22 2 356 350 358 7 350 327 338 322 301 298 284 272 249 240 242 36 349 337 342 17 305 46 29 8 10 15 15 11 13 23 23 21 30 35
162 179 209 176 132 19 352 1 351 353 345 349 341 338 326 339 313 309 291 280 284 278 266 288 307 331 317 339 345 306 352 38 15 15 18 18 14 18 25 25 24 30 33
176 188 207 206 187 188 241 312 318 331 319 343 328 324 328 322 331 312 288 283 287 285 284 333 307 322 330 310 328 313 340 47 33 20 17 15 14 19 25 29 28 28 29
189 198 206 215 212 212 216 228 269 293 296 305 303 305 307 319 304 295 289 280 272 271 267 273 280 296 287 290 312 305 309 311 44 34 18 18 20 21 26 27 27 27 25
201 207 208 214 213 224 240 251 265 266 276 286 288 288 287 282 278 284 284 274 273 272 270 271 265 273 285 297 299 297 317 326 328 52 18 16 16 18 23 24 22 19 16
204 208 210 214 219 225 236 249 256 260 264 274 281 282 283 273 268 264 267 271 268 267 268 262 272 293 277 293 290 300 301 315 316 30 312 358 12 11 21 21 18 14 11
210 212 214 217 221 223 230 241 247 254 264 274 280 283 283 281 280 274 266 264 261 254 253 256 260 262 269 297 293 291 293 300 309 318 326 299 272 252 26 18 9 4 9
215 214 215 218 225 229 233 245 252 259 258 258 261 265 281 304 324 312 298 283 267 256 249 248 248 253 250 264 284 284 290 293 296 314 300 289 283 276 230 222 348 355 16
218 220 220 218 224 231 182 278 277 254 262 260 258 255 246 241 246 253 284 299 302 281 268 256 251 254 258 260 278 277 291 289 292 311 294 290 291 285 289 317 14 348 347
216 221 220 222 231 215 184 225 275 267 259 261 258 251 253 253 252 242 229 231 248 280 290 276 266 266 269 268 270 269 272 280 293 319 291 278 285 286 282 339 68 321 314
217 225 224 226 234 218 198 213 251 256 256 257 258 256 250 243 253 264 253 248 250 251 265 267 269 270 281 279 267 271 272 271 269 260 276 279 287 288 285 261 168 240 270
223 225 223 224 229 212 199 216 244 251 249 252 257 258 258 247 238 264 254 249 249 237 221 266 308 305 316 310 291 272 272 265 269 253 255 277 284 290 279 262 203 215 239
228 226 226 227 230 225 195 219 244 247 246 249 252 252 266 280 231 257 255 253 255 254 245 224 231 231 237 215 245 254 261 271 278 269 256 281 288 292 279 260 274 261 245